Location: Gull Harbor
(47.1000°N, 122.9000°W)
Time: 19:15:55
(UTC-07:00)

Envisat - Pass Details

Date: 31 July 2021
Orbit: 764 x 766 km, 98.2° (Epoch: 27 September)

Event Time Altitude Azimuth Distance (km) Brightness Sun altitude
Rises 05:01:50 0° 32° (NNE) 3,244 7.8 -7.7°
Reaches altitude 10° 05:05:36 10° 60° (ENE) 2,311 7.2 -7.2°
Maximum altitude 05:07:48 13° 86° (E) 2,119 6.3 -6.9°
Drops below altitude 10° 05:10:01 10° 113° (ESE) 2,303 5.9 -6.6°
Sets 05:13:44 0° 141° (SE) 3,221 6.3 -6.1°
